Jackson, NJ

8:44 PM EST on January 20, 2017 (GMT -0500)
Lakehurst Naes

Weather History for KNEL - March, 2013

Change the Weather History Date:

Wednesday, March 6, 2013

  Actual Average Record
Temperature  
Mean Temperature 37 °F -  
Max Temperature 37 °F 43 °F 51 °F (1998)
Min Temperature 30 °F 32 °F 19 °F (2014)
Degree Days  
Heating Degree Days 28    
Moisture  
Dew Point 33 °F    
Average Humidity 80    
Maximum Humidity 89    
Minimum Humidity 70    
Precipitation  
Precipitation 0.00 in - - ()
Sea Level Pressure  
Sea Level Pressure 29.80 in    
Wind  
Wind Speed 17 mph (NE)    
Max Wind Speed 32 mph    
Max Gust Speed 54 mph    
Averages and records for this station are not official NWS values.
T = Trace of Precipitation, MM = Missing Value Source: NWS Daily Summary

Daily Weather History Graph

Daily Weather History Graph

Search for Another Location

Airport or City:

Trip Planner

Search our weather history database for the weather conditions in past years. The results will help you decide how hot, cold, wet, or windy it might be!

Date:

Astronomy

Mar. 06, 2013 Rise Set
Actual Time 6:22 AM EST 5:54 PM EST
Civil Twilight 5:55 AM EST 6:22 PM EST
Nautical Twilight 5:24 AM EST 6:53 PM EST
Astronomical Twilight 4:52 AM EST 7:24 PM EST
Moon 2:29 AM EST (3/6) 12:34 PM EST (3/6)
Length of Visible Light 12h 26m
Length of Day
11h 32m
Waning Crescent, 30% of the Moon is Illuminated
Mar 6
Waning Crescent
Mar 11
New
Mar 19
First Quarter
Mar 27
Full
Apr 3
Last Quarter

Hourly Weather History & Observations

Time (EST) Temp. Windchill Dew Point Humidity Pressure Visibility Wind Dir Wind Speed Gust Speed Precip Events Conditions
12:00 AM 30.9 °F 26.2 °F 27.0 °F 85% 29.95 in - East 4.6 mph - N/A   Clear
1:00 AM 32.0 °F 25.6 °F 28.0 °F 85% 29.93 in - ENE 6.9 mph - N/A   Clear
3:00 AM 39.9 °F 31.4 °F 32.0 °F 73% 29.86 in - East 16.1 mph 26.5 mph N/A   Clear
4:00 AM 39.9 °F 30.0 °F 32.0 °F 73% 29.84 in - East 21.9 mph 28.8 mph N/A   Partly Cloudy
4:26 AM 39.2 °F 29.6 °F 33.8 °F 81% 29.84 in - East 19.6 mph 32.2 mph N/A   Mostly Cloudy
5:00 AM 39.9 °F 29.7 °F 32.0 °F 73% 29.83 in - East 23.0 mph 31.1 mph N/A   Overcast
6:00 AM 39.9 °F 30.5 °F 33.1 °F 77% 29.81 in - East 19.6 mph 33.4 mph N/A   Overcast
7:00 AM 39.9 °F 30.0 °F 34.0 °F 79% 29.80 in - East 21.9 mph 34.5 mph N/A   Overcast
8:00 AM 41.0 °F 29.8 °F 33.1 °F 73% 29.80 in - ENE 29.9 mph 36.8 mph N/A   Overcast
9:00 AM 39.9 °F 29.5 °F 34.0 °F 79% 29.80 in - ENE 24.2 mph 38.0 mph N/A   Overcast
10:00 AM 41.0 °F 30.2 °F 35.1 °F 79% 29.78 in - ENE 27.6 mph 43.7 mph N/A Rain Light Rain
10:39 AM 39.2 °F 27.8 °F 35.6 °F 87% 29.76 in - ENE 27.6 mph 43.7 mph N/A Rain Light Rain
11:00 AM 39.9 °F 28.2 °F 37.0 °F 89% 29.76 in - ENE 31.1 mph 40.3 mph N/A Rain Light Rain
12:00 PM 44.1 °F 35.0 °F 36.0 °F 73% 29.76 in - ENE 24.2 mph 40.3 mph N/A Rain Light Rain
1:06 PM 43.0 °F 32.5 °F 36.0 °F 76% 29.72 in - ENE 29.9 mph 47.2 mph N/A Rain Rain
2:00 PM 42.1 °F 31.0 °F 35.1 °F 76% 29.70 in - NE 32.2 mph 54.1 mph N/A Rain Rain
2:36 PM 42.8 °F 33.8 °F 33.8 °F 70% 29.72 in - NE 21.9 mph 46.0 mph N/A Rain Light Rain
3:00 PM 37.4 °F 26.9 °F 33.8 °F 87% 29.74 in - ENE 20.7 mph 42.6 mph N/A Rain Light Rain
3:08 PM 39.2 °F 29.0 °F 33.8 °F 81% 29.74 in - NE 21.9 mph 39.1 mph N/A Rain Light Rain
3:18 PM 39.9 °F 29.7 °F 34.0 °F 79% 29.74 in - NE 23.0 mph 39.1 mph N/A Rain Light Rain
5:00 PM 39.0 °F 30.3 °F 33.1 °F 79% 29.76 in - NE 16.1 mph 29.9 mph N/A Rain Light Rain
6:00 PM 39.0 °F 29.9 °F 33.1 °F 79% 29.78 in - NNE 17.3 mph 31.1 mph N/A Rain Light Rain
7:00 PM 39.0 °F 29.0 °F 33.1 °F 79% 29.82 in - NE 20.7 mph 36.8 mph N/A Rain Light Rain
8:00 PM 37.0 °F 27.0 °F 33.1 °F 86% 29.83 in - NNE 18.4 mph 31.1 mph N/A Rain Light Rain
9:00 PM 36.0 °F 27.5 °F 33.1 °F 89% 29.85 in - NNE 12.7 mph 23.0 mph N/A Rain Light Rain
10:00 PM 36.0 °F 28.5 °F 32.0 °F 86% 29.86 in - NNE 10.4 mph 21.9 mph N/A   Overcast
11:00 PM 37.0 °F 30.4 °F 32.0 °F 82% 29.87 in - North 9.2 mph 26.5 mph N/A Snow Light Snow
11:57 PM 37.4 °F 30.8 °F 32.0 °F 81% 29.87 in - NNE 9.2 mph - N/A Snow Light Snow